CZ-4 DEB

Satellite information

Favourite Embed

Satellite Type and Status

DEBRISIN ORBIT

Key statistics

Satellite CZ-4 DEB at a glance.

Uptime

7930

Days in orbit

Revolutions

≈ 14.2

Per day

Orbit

SSO

Sun Synchronous Orbit

Inclination

98.7

Latest

Satellite identification and parameters

Extended collection of information and parameters for CZ-4 DEB.

Object identification

Identified? True

Debris? True

Object name: CZ-4 DEB

International designator: 2003-049J

Object number (NORAD): 35382

Object ID (CCSDS): 35382

Country: PEOPLES REPUBLIC OF CHINA (PRC)

Current information (Y/N): Y

RCS size: SMALL

Orbital parameters

Period: 101.156 minutes

Inclination: 98.6946 deg

SMA: 7191.552 km

Apoapsis: 918.559 km

Periapsis: 708.275 km

RAAN: 102.2545 deg

Eccentricy: 0.0146202

Argument of periapsis: 92.9931 deg

Mean anomaly: 268.7988 deg

Mean motion: 14.23537133 rev/day

Mean motion (dot): 0.00000869 rev/day2

B* drag term: 0.00035915 1/REarth

Two-line elements (TLE)

Creation date: July 5, 2025, 10:46 p.m.

Reference frame: TEME

Reference center: EARTH

Epoch: July 5, 2025, 4:54 p.m. UTC

TLE line 0: 0 CZ-4 DEB

TLE line 1: 1 35382U 03049J 25186.70469094 .00000869 00000-0 35915-3 0 9997

TLE line 2: 2 35382 98.6946 102.2545 0146202 92.9931 268.7988 14.23537133104300

Live tracking on map

Real-time ground track for satellite CZ-4 DEB.

In-orbit conjunctions

A list of the most updated potential collisions computed for object CZ-4 DEB.

Target Orbit TCA Probability of collision Miss distance Type
CZ-6A DEB LEO 2025-02-11 23:14:13 0.0003763495 539.0 (m) DEBRIS
CZ-6A DEB LEO 2024-10-06 12:25:32 0.0001715347 555.0 (m) DEBRIS

Associated space launch

The satellite is China's first operational civilian remote-sensing satellite, specifically designed for the Chinese Ministry of Land and Resources (MLR).

CZ-4 DEB was lifted into orbit during the mission ‘Long March 4B | Zi Yuan 1-2’, on board a Long March 4B space rocket.

The launch took place on Oct. 21, 2003, 3:16 a.m. from Launch Complex 7.

For more information about the launch, click the button.

Launch to space Long March 4B | Zi Yuan 1-2
Long March 4B | Zi Yuan 1-2

Agency: N/A

Status: Launch Successful

Launch date: Oct. 21, 2003, 3:16 a.m. UTC

Rocket: Long March 4B

Launch pad: Launch Complex 7

Location: Taiyuan Satellite Launch Center, People's Republic of China

...

Latest news about this satellite

There are no fresh news available about this satellite. Check back as we update our databases every day.


Newsletter sign-up

Weekly statistics, charts and insights to help you stay on top of the space industry.